[[{"header":{"parameterUnit":"m.s-1","parameterCategory":2,"la1":30.2991,"la2":30.254,"lo1":-89.0895,"lo2":-89.0444,"dy":0.0017,"dx":0.0017,"nx":28,"ny":28,"refTime":"2024-05-17T09:00:00:Z","depth":"0","parameterNumber":2,"parameterNumberName":"U-component_of_CURRENTS"},"data":[0,0,0,0,0,0,0,0,0,0,0,0,0,0,0,0,0,0,0,0,0,0,0,0,0,0,0,0,0,0,0,0,0,0,0,0,0,0,0,0,0,0,0,0,0,0,0,0,0,0,0,0,0,0,0,0,0,0,0.2077,0.2077,0,0.2079,0.2079,0.2079,0.2068,0.2068,0.2068,0.2068,0.2058,0.2058,0.2057,0,0,0,0,0,0,0,0,0,0,0,0,0,0.2054,0.2054,0.2077,0.2077,0.2077,0.2079,0.2079,0.2078,0.2068,0.2068,0.2068,0.2068,0.2058,0.2058,0.2057,0,0,0,0,0,0,0,0,0,0,0,0,0,0.2059,0.2055,0.2077,0.2073,0.2073,0.2079,0.2079,0.2078,0.2068,0.2068,0.2068,0.2068,0.2058,0.2058,0.2057,0.2061,0,0,0.2057,0.2057,0,0,0,0,0,0,0,0,0.2059,0.206,0.2074,0.2074,0.2073,0.2074,0.2067,0.2072,0.2069,0.2069,0.2068,0.2068,0.2063,0.2063,0.2062,0.206,0.206,0.2057,0.2057,0.2057,0.2057,0,0,0,0,0,0,0,0.2059,0.206,0.2076,0.2074,0.2074,0.2068,0.2069,0.2068,0.2066,0.2069,0.2068,0.2071,0.2063,0.2062,0.2061,0.206,0.2057,0.2057,0.2057,0.2056,0.2113,0.2114,0,0,0,0,0,0,0.2062,0.206,0.2076,0.2076,0.2067,0.2069,0.2069,0.2073,0.2066,0.2065,0.2071,0.2071,0.2062,0.2062,0.2061,0.2117,0.2057,0.2056,0.2056,0.2111,0.2113,0.2115,0,0,0,0,0,0,0.2062,0.2064,0.2076,0.2069,0.207,0.207,0.2074,0.2073,0.2076,0.2068,0.2067,0.2075,0.2062,0.2061,0.2074,0.2114,0.2056,0.2056,0.2109,0.2112,0.2114,0.2195,0,0,0,0,0,0,0.2061,0.2064,0.2066,0.2069,0.2071,0.2091,0.2074,0.2074,0.2078,0.2078,0.2071,0.207,0.2062,0.2075,0.2074,0.2113,0.2056,0.2107,0.2111,0.2113,0.2191,0.22,0.2209,0,0,0,0,0,0.206,0.2067,0.2066,0.2068,0.2075,0.2092,0.2093,0.209,0.2079,0.2089,0.2086,0.207,0.2094,0.2075,0.2074,0.2115,0.2106,0.211,0.2113,0.2187,0.2199,0.2208,0,0,0,0,0,0,0.2057,0.2067,0.2066,0.2075,0.2088,0.2091,0.2098,0.2094,0.2098,0.2098,0.2083,0.2083,0.2114,0.2099,0.2079,0.214,0.21,0.2104,0.2157,0.2168,0.2176,0.2197,0.2056,0,0,0,0,0,0.2059,0.2068,0.2078,0.2087,0.2094,0.2096,0.2101,0.2103,0.2108,0.2109,0.2106,0.211,0.2128,0.2134,0.2142,0.2167,0.2175,0.2194,0.2203,0.2211,0.2228,0.2289,0.2306,0.2127,0.2127,0.2127,0,0,0.2058,0.2067,0.207,0.2087,0.2095,0.2116,0.2098,0.2115,0.2138,0.2108,0.2135,0.2139,0.2142,0.2179,0.2192,0.2171,0.2262,0.2215,0.2222,0.2235,0.2295,0.2312,0.2328,0.2129,0.2129,0.2129,0,0,0.2072,0.2074,0.209,0.2106,0.2126,0.2132,0.2139,0.2151,0.2163,0.219,0.2184,0.2214,0.2223,0.2247,0.2257,0.2318,0.2309,0.2318,0.238,0.244,0.2455,0.2469,0.2486,0.2501,0.2322,0.2322,0.2322,0,0.2072,0.2097,0.2098,0.2124,0.2146,0.2142,0.2174,0.2186,0.2203,0.2238,0.2211,0.2279,0.2264,0.234,0.2355,0.2342,0.2359,0.2338,0.2453,0.2467,0.248,0.2494,0.2509,0.2326,0.2326,0.2325,0.2325,0,0.2101,0.2125,0.2139,0.2173,0.2195,0.2223,0.2245,0.227,0.2281,0.2312,0.2387,0.2383,0.243,0.243,0.2404,0.2498,0.2474,0.2459,0.2428,0.2503,0.2512,0.2527,0.2332,0.2331,0.233,0.2328,0,0,0.2092,0.2149,0.2154,0.2183,0.2228,0.2246,0.2301,0.2364,0.241,0.2446,0.2521,0.2558,0.2573,0.2584,0.2571,0.2609,0.2688,0.2571,0.2572,0.259,0.2801,0.2774,0.2786,0.2701,0.2705,0.2707,0.2765,0,0.2119,0.2173,0.2203,0.226,0.2292,0.2327,0.2377,0.2436,0.2481,0.2547,0.2597,0.2653,0.2628,0.2645,0.2694,0.2687,0.2734,0.2672,0.2723,0.2724,0.2695,0.2806,0.2787,0.2838,0.2779,0.2781,0.2783,0,0.214,0.2177,0.2238,0.2314,0.2332,0.2365,0.2455,0.25,0.2604,0.2644,0.2739,0.2771,0.2847,0.2794,0.2882,0.2847,0.2841,0.2831,0.2833,0.2794,0.2726,0.2757,0.2866,0.2889,0.2805,0.2803,0.2801,0,0.2122,0.2202,0.2252,0.2276,0.2357,0.2399,0.244,0.2538,0.2589,0.2706,0.2757,0.2877,0.2911,0.2962,0.2956,0.2929,0.3028,0.2987,0.2966,0.2962,0.295,0.294,0.3094,0.3068,0.3068,0.3068,0.3068,0,0.2135,0.2173,0.2244,0.2265,0.2328,0.2391,0.247,0.2525,0.2626,0.2703,0.2799,0.2878,0.2956,0.3021,0.3012,0.3044,0.3089,0.301,0.3,0.2973,0.2965,0.2983,0.2947,0.307,0.3069,0.3069,0.3069,0,0.2101,0.2153,0.2202,0.2285,0.2315,0.2349,0.2451,0.2512,0.2603,0.2699,0.274,0.2893,0.2992,0.3049,0.3116,0.3104,0.3058,0.3122,0.3064,0.3048,0.3041,0.3007,0.2821,0.2749,0.3128,0.3128,0.3128,0,0.2089,0.2114,0.2184,0.2213,0.2249,0.2319,0.2376,0.2479,0.2544,0.2708,0.2751,0.2896,0.2993,0.3097,0.3138,0.3167,0.3054,0.3135,0.309,0.3079,0.3034,0.2757,0.2691,0.3094,0.3094,0.3094,0.3094,0,0.2064,0.2083,0.2116,0.2166,0.2219,0.2283,0.2365,0.2399,0.2532,0.2614,0.2733,0.2825,0.2991,0.3075,0.3138,0.3136,0.3015,0.313,0.3163,0.3075,0.2739,0.2653,0.2981,0.3092,0.3092,0.3092,0.3092,0.3092,0.203,0.2037,0.2077,0.2122,0.2177,0.2222,0.2232,0.2335,0.2406,0.2503,0.2645,0.2754,0.2996,0.3116,0.3101,0.3154,0.2981,0.3126,0.3099,0.2825,0.2725,0.3028,0.3097,0.3097,0.3097,0.3097,0.3097,0,0.1987,0.2006,0.2043,0.2075,0.2095,0.2151,0.2212,0.2209,0.2248,0.2418,0.2507,0.2744,0.2891,0.305,0.3209,0.3167,0.294,0.3121,0.2805,0.2756,0.3128,0.3109,0.313,0.313,0.313,0.313,0.313,0.313,0.1965,0.1974,0.1994,0.1995,0.201,0.1992,0.1994,0.2007,0.21,0.2229,0.2377,0.2509,0.2841,0.3133,0.322,0.3167,0.2947,0.2783,0.2729,0.314,0.3139,0.3139,0.312,0.3143,0.3143,0.2252,0.2246,0.2242]},{"header":{"parameterUnit":"m.s-1","parameterCategory":2,"la1":30.2991,"la2":30.254,"lo1":-89.0895,"lo2":-89.0444,"dy":0.0017,"dx":0.0017,"nx":28,"ny":28,"refTime":"2024-05-17T09:00:00:Z","depth":"0","parameterNumber":3,"parameterNumberName":"V-component_of_CURRENTS"},"data":[0,0,0,0,0,0,0,0,0,0,0,0,0,0,0,0,0,0,0,0,0,0,0,0,0,0,0,0,0,0,0,0,0,0,0,0,0,0,0,0,0,0,0,0,0,0,0,0,0,0,0,0,0,0,0,0,0,0,0.0247,0.0246,0,0.021,0.021,0.0209,0.0186,0.0186,0.0186,0.0186,0.0133,0.0131,0.013,0,0,0,0,0,0,0,0,0,0,0,0,0,0.0279,0.0278,0.0247,0.0246,0.0246,0.021,0.021,0.0209,0.0186,0.0186,0.0186,0.0186,0.0133,0.0131,0.013,0,0,0,0,0,0,0,0,0,0,0,0,0,0.0256,0.0278,0.0247,0.023,0.0228,0.021,0.0209,0.0209,0.0186,0.0186,0.0186,0.0186,0.0134,0.0132,0.013,0.0121,0,0,0.0124,0.0123,0,0,0,0,0,0,0,0,0.0257,0.0254,0.0233,0.0231,0.0229,0.0203,0.0201,0.0179,0.0186,0.0202,0.0186,0.0185,0.0155,0.0151,0.0144,0.0118,0.0116,0.0124,0.0122,0.0121,0.0121,0,0,0,0,0,0,0,0.0259,0.0256,0.0232,0.0233,0.023,0.0218,0.0215,0.0197,0.0179,0.02,0.0199,0.0195,0.0153,0.0146,0.0143,0.0115,0.0124,0.0122,0.0121,0.012,0.0078,0.0078,0,0,0,0,0,0,0.0265,0.0257,0.0233,0.0231,0.0243,0.0218,0.0214,0.0211,0.018,0.0175,0.0195,0.0194,0.015,0.0145,0.0141,0.0138,0.0121,0.012,0.0119,0.0078,0.0078,0.0078,0,0,0,0,0,0,0.0265,0.0263,0.0235,0.0243,0.0239,0.0218,0.0214,0.021,0.0204,0.0176,0.0171,0.0193,0.015,0.0144,0.0129,0.0136,0.0119,0.0117,0.0078,0.0078,0.0078,0.0127,0,0,0,0,0,0,0.0267,0.0263,0.0265,0.0244,0.0239,0.0229,0.0214,0.021,0.0202,0.02,0.0172,0.0167,0.0149,0.0133,0.0128,0.0133,0.0115,0.0078,0.0078,0.0078,0.0125,0.0128,0.0131,0,0,0,0,0,0.0268,0.0273,0.0265,0.0262,0.0241,0.023,0.0226,0.021,0.0202,0.0203,0.0184,0.0168,0.0129,0.0131,0.0125,0.013,0.0078,0.0078,0.0078,0.0124,0.0128,0.0131,0,0,0,0,0,0,0.029,0.027,0.0262,0.0261,0.0248,0.0226,0.0226,0.0213,0.0198,0.0197,0.017,0.0163,0.0152,0.0133,0.0136,0.0117,0.01,0.0099,0.0137,0.0141,0.0144,0.0167,0.0114,0,0,0,0,0,0.0295,0.0294,0.0273,0.0274,0.0268,0.0247,0.0241,0.0229,0.0213,0.0206,0.0187,0.0165,0.0147,0.0139,0.0119,0.0111,0.0093,0.0109,0.0112,0.0115,0.0129,0.0102,0.0104,0.0078,0.0078,0.0078,0,0,0.0304,0.0294,0.0293,0.0279,0.0267,0.0267,0.0243,0.0237,0.0239,0.0202,0.02,0.0175,0.0147,0.0138,0.0131,0.0124,0.0112,0.0115,0.0118,0.0131,0.0102,0.0105,0.0107,0.0078,0.0078,0.0078,0,0,0.0327,0.0313,0.0321,0.0312,0.0298,0.0284,0.0284,0.0263,0.0255,0.0248,0.0222,0.0206,0.0178,0.0162,0.015,0.0159,0.0128,0.0146,0.0183,0.0157,0.0159,0.0161,0.014,0.0139,0.0149,0.0149,0.0149,0,0.034,0.0345,0.0322,0.0328,0.0327,0.0295,0.0306,0.0293,0.0271,0.0276,0.0255,0.0227,0.0194,0.0192,0.0188,0.0168,0.0147,0.0173,0.0162,0.0163,0.0164,0.0142,0.0141,0.0152,0.0151,0.0151,0.0151,0,0.0369,0.0371,0.0376,0.0374,0.0369,0.0372,0.0352,0.035,0.0335,0.0326,0.0322,0.028,0.0271,0.0247,0.0217,0.021,0.0192,0.0168,0.0156,0.017,0.0146,0.0144,0.0155,0.0154,0.0153,0.0153,0,0,0.0401,0.0398,0.0399,0.0411,0.0394,0.0399,0.0402,0.0404,0.0431,0.0394,0.0422,0.0369,0.0354,0.0338,0.0298,0.0265,0.0239,0.022,0.0218,0.0207,0.0183,0.017,0.0166,0.0211,0.021,0.021,0.0163,0,0.0432,0.0459,0.0444,0.0473,0.0485,0.0463,0.0481,0.0479,0.0476,0.0494,0.0449,0.0458,0.0387,0.039,0.0343,0.027,0.0236,0.0255,0.0165,0.0162,0.0155,0.0164,0.0235,0.0198,0.016,0.016,0.016,0,0.0465,0.0479,0.0513,0.0537,0.0543,0.0556,0.0591,0.0604,0.0613,0.0614,0.0606,0.0576,0.0533,0.047,0.0357,0.0371,0.0284,0.0218,0.0214,0.0188,0.0146,0.0177,0.0196,0.0085,0.0156,0.0156,0.0157,0,0.0507,0.0529,0.0563,0.0567,0.0588,0.0607,0.0624,0.0645,0.0686,0.0699,0.0734,0.0672,0.0661,0.0541,0.04,0.0377,0.0275,0.0228,0.0138,0.0136,0.0174,0.0175,0.0085,0.0152,0.0152,0.0153,0.0153,0,0.0545,0.057,0.0589,0.0607,0.0666,0.0665,0.0739,0.0748,0.0796,0.0871,0.0806,0.0852,0.0676,0.0599,0.0445,0.0296,0.031,0.0154,0.0126,0.0191,0.0195,0.0081,0.0035,0.0151,0.0151,0.0151,0.0152,0,0.0578,0.059,0.0632,0.0666,0.0685,0.073,0.0808,0.0881,0.0906,0.1,0.1013,0.0983,0.0888,0.0709,0.0526,0.0375,0.0182,0.0163,0.0254,0.0237,0.0034,-0.001,-0.0075,-0.0117,0.0053,0.0053,0.0052,0,0.0598,0.0624,0.0675,0.072,0.0736,0.0808,0.0882,0.0931,0.1016,0.1095,0.1156,0.1101,0.1098,0.0826,0.0563,0.0312,0.0195,0.0185,0.0145,0.0041,-0.0029,-0.004,-0.0071,0.0213,0.0214,0.0214,0.0215,0,0.0641,0.0658,0.0694,0.0775,0.0853,0.0954,0.1052,0.113,0.1217,0.13,0.1402,0.1408,0.1185,0.0989,0.0634,0.0441,0.016,0.019,0.0065,0.0079,0.0083,0.0024,0.0221,0.0221,0.0221,0.022,0.022,0.022,0.0676,0.0711,0.0767,0.0843,0.0948,0.1091,0.1179,0.1309,0.1453,0.1607,0.1602,0.1682,0.1402,0.0947,0.063,0.0188,0.0197,0.0071,0.0024,0.002,-0.0009,0.0199,0.0172,0.0171,0.017,0.017,0.0169,0,0.0729,0.0768,0.0841,0.0949,0.1076,0.1118,0.1299,0.1415,0.1597,0.1792,0.1899,0.1909,0.1496,0.1057,0.0473,0.0115,-0.0009,-0.0066,-0.0061,-0.0093,0.0081,0.0097,0.0074,0.0074,0.0074,0.0074,0.0074,0.0075,0.0762,0.0839,0.0871,0.1053,0.1135,0.131,0.1417,0.1601,0.1783,0.2083,0.2258,0.237,0.2194,0.1029,0.026,0.0018,-0.0209,-0.0231,-0.0369,-0.0254,-0.0245,-0.0236,-0.0235,-0.0327,-0.0328,-0.0477,-0.0479,-0.0481]}],[{"header":{"parameterUnit":"m.s-1","parameterCategory":2,"la1":30.2991,"la2":30.254,"lo1":-89.0895,"lo2":-89.0444,"dy":0.0017,"dx":0.0017,"nx":28,"ny":28,"refTime":"2024-05-17T09:00:00:Z","depth":"2","parameterNumber":2,"parameterNumberName":"U-component_of_CURRENTS"},"data":[0,0,0,0,0,0,0,0,0,0,0,0,0,0,0,0,0,0,0,0,0,0,0,0,0,0,0,0,0,0,0,0,0,0,0,0,0,0,0,0,0,0,0,0,0,0,0,0,0,0,0,0,0,0,0,0,0,0,0.2023,0.2023,0,0.2025,0.2025,0.2025,0.2017,0.2017,0.2017,0.2017,0.2008,0.2008,0.2008,0,0,0,0,0,0,0,0,0,0,0,0,0,0.2,0.2001,0.2022,0.2023,0.2023,0.2025,0.2025,0.2025,0.2017,0.2017,0.2017,0.2017,0.2008,0.2008,0.2008,0,0,0,0,0,0,0,0,0,0,0,0,0,0.2006,0.2001,0.2022,0.202,0.202,0.2025,0.2025,0.2025,0.2017,0.2017,0.2017,0.2017,0.2008,0.2008,0.2008,0.201,0,0,0.2007,0.2007,0,0,0,0,0,0,0,0,0.2005,0.2006,0.2021,0.2021,0.202,0.2022,0.2014,0.202,0.2017,0.2017,0.2017,0.2017,0.2013,0.2012,0.2011,0.2009,0.2009,0.2007,0.2007,0.2007,0.2007,0,0,0,0,0,0,0,0.2005,0.2006,0.2022,0.2021,0.2021,0.2016,0.2016,0.2015,0.2014,0.2017,0.2017,0.2019,0.2012,0.2011,0.2011,0.2009,0.2007,0.2007,0.2007,0.2007,0.2063,0.2064,0,0,0,0,0,0,0.2009,0.2006,0.2022,0.2022,0.2014,0.2016,0.2017,0.202,0.2015,0.2014,0.2019,0.2019,0.2012,0.2011,0.201,0.2068,0.2007,0.2007,0.2007,0.2061,0.2063,0.2065,0,0,0,0,0,0,0.2008,0.201,0.2022,0.2015,0.2016,0.2017,0.2021,0.2021,0.2024,0.2017,0.2016,0.2024,0.2012,0.2011,0.2024,0.2065,0.2007,0.2007,0.2059,0.2062,0.2064,0.2147,0,0,0,0,0,0,0.2007,0.201,0.2013,0.2015,0.2017,0.2036,0.2021,0.2021,0.2026,0.2026,0.2021,0.2019,0.2011,0.2024,0.2023,0.2064,0.2006,0.2057,0.206,0.2063,0.2143,0.2152,0.2161,0,0,0,0,0,0.2007,0.2013,0.2013,0.2015,0.2022,0.2037,0.2038,0.2036,0.2027,0.2037,0.2034,0.202,0.2043,0.2025,0.2024,0.2066,0.2056,0.2059,0.2063,0.2139,0.215,0.216,0,0,0,0,0,0,0.2004,0.2013,0.2013,0.2021,0.2034,0.2037,0.2044,0.204,0.2045,0.2046,0.2032,0.2031,0.2064,0.2048,0.2028,0.2091,0.205,0.2054,0.2108,0.2119,0.2128,0.2148,0.2006,0,0,0,0,0,0.2006,0.2014,0.2024,0.2033,0.204,0.2042,0.2047,0.205,0.2055,0.2056,0.2054,0.2058,0.2077,0.2083,0.2092,0.2116,0.2122,0.2145,0.2154,0.2162,0.2178,0.2237,0.2254,0.2077,0.2077,0.2077,0,0,0.2005,0.2014,0.2017,0.2033,0.2041,0.2062,0.2045,0.2061,0.2086,0.2055,0.2084,0.2088,0.2091,0.2129,0.2142,0.2121,0.2212,0.2166,0.2173,0.2185,0.2243,0.226,0.2276,0.2079,0.2079,0.2078,0,0,0.2019,0.2021,0.2036,0.2052,0.2073,0.2078,0.2085,0.2097,0.2111,0.2139,0.2133,0.2163,0.2174,0.2197,0.2207,0.2268,0.2259,0.227,0.2332,0.239,0.2405,0.2419,0.2434,0.2448,0.2274,0.2274,0.2274,0,0.2019,0.2044,0.2044,0.207,0.2092,0.2088,0.212,0.2133,0.215,0.2186,0.216,0.2229,0.2214,0.229,0.2305,0.2291,0.2308,0.229,0.2404,0.2417,0.243,0.2442,0.2457,0.2278,0.2278,0.2277,0.2277,0,0.2049,0.2073,0.2087,0.212,0.2141,0.2169,0.2191,0.2216,0.2229,0.2261,0.2338,0.2333,0.2381,0.2381,0.2355,0.2448,0.2424,0.241,0.2378,0.2453,0.246,0.2474,0.2285,0.2283,0.2282,0.2281,0,0,0.2042,0.2098,0.2103,0.2133,0.2175,0.2194,0.2246,0.231,0.2358,0.2395,0.2472,0.2508,0.2525,0.2536,0.2523,0.2558,0.2636,0.2521,0.2522,0.2539,0.2746,0.2713,0.2724,0.265,0.2654,0.2656,0.2709,0,0.207,0.2123,0.2152,0.221,0.2241,0.2275,0.2324,0.2383,0.243,0.2498,0.2548,0.2605,0.258,0.2598,0.2645,0.2635,0.268,0.2622,0.2668,0.2668,0.2634,0.2743,0.2513,0.2541,0.2722,0.2725,0.2726,0,0.2091,0.2128,0.2188,0.2265,0.2284,0.2318,0.2407,0.2452,0.2556,0.2597,0.2692,0.2725,0.2799,0.2746,0.2829,0.2796,0.2788,0.2775,0.2777,0.2732,0.2664,0.2498,0.2559,0.2749,0.2747,0.2746,0.2744,0,0.2074,0.2154,0.2205,0.223,0.231,0.2354,0.2395,0.2491,0.2542,0.2661,0.2711,0.283,0.2863,0.2912,0.2901,0.2876,0.2966,0.2927,0.29,0.2894,0.2701,0.2674,0.3005,0.3005,0.3005,0.3004,0.3004,0,0.2087,0.2126,0.2199,0.2221,0.2287,0.2349,0.2431,0.2485,0.2583,0.2658,0.2757,0.2833,0.2907,0.2968,0.2956,0.2981,0.3028,0.2941,0.293,0.272,0.2696,0.2874,0.2858,0.3006,0.3006,0.3006,0.3005,0,0.2052,0.2106,0.2156,0.2242,0.2275,0.231,0.2414,0.2476,0.2564,0.2656,0.2696,0.2846,0.2939,0.2992,0.3052,0.3037,0.3057,0.3046,0.2778,0.2737,0.2927,0.2914,0.3043,0.3042,0.3042,0.3042,0.3042,0,0.204,0.2065,0.2139,0.2172,0.2211,0.2285,0.2342,0.2444,0.2505,0.2664,0.2702,0.2842,0.2926,0.302,0.302,0.3032,0.3067,0.2827,0.2755,0.2967,0.2943,0.293,0.2919,0.2509,0.2504,0.2501,0.2498,0,0.2016,0.2036,0.207,0.2125,0.2183,0.2249,0.233,0.2363,0.2489,0.2562,0.2674,0.2756,0.2876,0.283,0.2867,0.2833,0.2814,0.2757,0.3069,0.2549,0.2473,0.2446,0.245,0.2465,0.2469,0.2471,0.2473,0.2474,0.1983,0.1989,0.2032,0.208,0.2143,0.2187,0.2195,0.2287,0.2347,0.2395,0.2541,0.2567,0.2642,0.2603,0.2534,0.2488,0.2687,0.2563,0.257,0.2582,0.2526,0.2455,0.243,0.2433,0.2436,0.2438,0.244,0,0.1935,0.1959,0.1999,0.2035,0.2055,0.2116,0.2173,0.2143,0.2159,0.2249,0.2292,0.2134,0.2134,0.2197,0.2101,0.2127,0.2044,0.2025,0.1904,0.1942,0.1974,0.1881,0.1617,0.1614,0.1611,0.1608,0,0,0.1914,0.1921,0.1937,0.1943,0.1965,0.1944,0.1939,0.1902,0.1931,0.188,0.1878,0.2006,0.2154,0.185,0.1833,0.172,0.1796,0.1636,0.2307,0.2204,0.2232,0.2312,0.2217,0,0,0,0,0]},{"header":{"parameterUnit":"m.s-1","parameterCategory":2,"la1":30.2991,"la2":30.254,"lo1":-89.0895,"lo2":-89.0444,"dy":0.0017,"dx":0.0017,"nx":28,"ny":28,"refTime":"2024-05-17T09:00:00:Z","depth":"2","parameterNumber":3,"parameterNumberName":"V-component_of_CURRENTS"},"data":[0,0,0,0,0,0,0,0,0,0,0,0,0,0,0,0,0,0,0,0,0,0,0,0,0,0,0,0,0,0,0,0,0,0,0,0,0,0,0,0,0,0,0,0,0,0,0,0,0,0,0,0,0,0,0,0,0,0,0.0175,0.0175,0,0.014,0.0139,0.0139,0.0118,0.0118,0.0118,0.0118,0.0068,0.0067,0.0065,0,0,0,0,0,0,0,0,0,0,0,0,0,0.0207,0.0207,0.0175,0.0175,0.0174,0.014,0.0139,0.0139,0.0118,0.0118,0.0118,0.0118,0.0068,0.0067,0.0065,0,0,0,0,0,0,0,0,0,0,0,0,0,0.0185,0.0207,0.0175,0.016,0.0158,0.014,0.0139,0.0139,0.0118,0.0118,0.0118,0.0118,0.0069,0.0067,0.0065,0.0055,0,0,0.0059,0.0058,0,0,0,0,0,0,0,0,0.0186,0.0183,0.0163,0.0161,0.0159,0.0133,0.0132,0.011,0.0118,0.0133,0.0118,0.0118,0.0089,0.0085,0.0079,0.0053,0.0051,0.0059,0.0058,0.0057,0.0057,0,0,0,0,0,0,0,0.0188,0.0185,0.0161,0.0162,0.016,0.0149,0.0146,0.0128,0.0112,0.0132,0.013,0.0127,0.0088,0.0081,0.0077,0.005,0.0059,0.0057,0.0056,0.0056,0.0015,0.0015,0,0,0,0,0,0,0.0193,0.0186,0.0162,0.016,0.0173,0.0149,0.0145,0.0142,0.0112,0.0108,0.0127,0.0126,0.0084,0.0079,0.0075,0.0074,0.0057,0.0055,0.0054,0.0015,0.0015,0.0015,0,0,0,0,0,0,0.0194,0.0192,0.0164,0.0172,0.0168,0.0148,0.0145,0.0141,0.0135,0.0108,0.0104,0.0125,0.0084,0.0078,0.0065,0.0072,0.0055,0.0053,0.0015,0.0015,0.0015,0.0065,0,0,0,0,0,0,0.0195,0.0192,0.0194,0.0173,0.0168,0.0158,0.0145,0.014,0.0133,0.0132,0.0105,0.01,0.0083,0.0068,0.0063,0.0069,0.0051,0.0015,0.0015,0.0015,0.0063,0.0066,0.0069,0,0,0,0,0,0.0197,0.0201,0.0194,0.0191,0.017,0.0159,0.0155,0.014,0.0133,0.0134,0.0117,0.0101,0.0065,0.0066,0.0061,0.0066,0.0015,0.0015,0.0015,0.0061,0.0066,0.0069,0,0,0,0,0,0,0.0218,0.0199,0.0191,0.019,0.0178,0.0156,0.0156,0.0143,0.013,0.0129,0.0103,0.0097,0.0087,0.0068,0.0071,0.0054,0.0037,0.0036,0.0074,0.0078,0.0081,0.0104,0.005,0,0,0,0,0,0.0224,0.0222,0.0201,0.0202,0.0197,0.0176,0.017,0.016,0.0144,0.0138,0.012,0.0099,0.0082,0.0074,0.0056,0.0048,0.0029,0.0047,0.005,0.0053,0.0067,0.004,0.0042,0.0016,0.0016,0.0016,0,0,0.0232,0.0223,0.0221,0.0207,0.0196,0.0196,0.0173,0.0167,0.017,0.0134,0.0134,0.011,0.0082,0.0074,0.0068,0.0061,0.0049,0.0053,0.0056,0.0069,0.004,0.0043,0.0045,0.0016,0.0016,0.0016,0,0,0.0255,0.0241,0.0248,0.024,0.0227,0.0214,0.0214,0.0193,0.0187,0.0181,0.0155,0.014,0.0114,0.0099,0.0087,0.0096,0.0066,0.0084,0.0123,0.0095,0.0098,0.0099,0.0076,0.0076,0.0088,0.0088,0.0088,0,0.0268,0.0273,0.025,0.0256,0.0255,0.0225,0.0236,0.0223,0.0203,0.0208,0.0189,0.0162,0.013,0.0129,0.0126,0.0106,0.0085,0.0112,0.0101,0.0102,0.0103,0.0079,0.0078,0.009,0.009,0.009,0.009,0,0.0297,0.0299,0.0303,0.0301,0.0298,0.0301,0.0281,0.028,0.0267,0.0259,0.0257,0.0216,0.0208,0.0184,0.0155,0.0149,0.013,0.0107,0.0095,0.0109,0.0082,0.008,0.0094,0.0093,0.0092,0.0092,0,0,0.0329,0.0325,0.0327,0.034,0.0322,0.0328,0.0331,0.0335,0.0363,0.0328,0.0357,0.0306,0.0292,0.0276,0.0237,0.0204,0.0178,0.016,0.0157,0.0145,0.0119,0.0105,0.01,0.015,0.015,0.015,0.0097,0,0.0359,0.0386,0.0372,0.0401,0.0414,0.0393,0.041,0.041,0.0408,0.0428,0.0383,0.0394,0.0325,0.0329,0.0283,0.0209,0.0175,0.0195,0.0102,0.0099,0.009,0.0098,0.0089,0.0042,0.0095,0.0095,0.0094,0,0.0392,0.0406,0.0441,0.0466,0.0472,0.0486,0.0522,0.0536,0.0546,0.0548,0.0541,0.0512,0.0469,0.0408,0.0295,0.0309,0.0222,0.0155,0.0151,0.0123,0.008,0.0035,0.0035,0.009,0.009,0.0091,0.0091,0,0.0435,0.0457,0.0491,0.0496,0.0518,0.0539,0.0556,0.0578,0.0618,0.0634,0.0668,0.0608,0.0596,0.0477,0.0335,0.0314,0.0207,0.0163,0.007,0.0068,0.0037,0.0032,0.0086,0.0086,0.0087,0.0087,0.0087,0,0.0472,0.0499,0.0518,0.0537,0.0597,0.0596,0.0674,0.0682,0.073,0.0803,0.0742,0.0784,0.0611,0.0531,0.0379,0.0226,0.0241,0.0086,0.0057,0.0053,0.0051,0.0074,0.0073,0.0085,0.0085,0.0085,0.0086,0,0.0505,0.0518,0.0561,0.0596,0.0617,0.0663,0.0744,0.0817,0.084,0.0932,0.0945,0.0912,0.0813,0.0635,0.045,0.0302,0.0147,0.0088,0.0099,0.0072,0.0011,0.0014,-0.0022,-0.0023,-0.0024,-0.0025,-0.0025,0,0.0524,0.0551,0.0604,0.0652,0.067,0.0744,0.0818,0.0866,0.0949,0.1023,0.108,0.1021,0.1004,0.0729,0.0455,0.0198,0.0164,0.0021,-0.0025,0.0027,0.0001,0.0005,0.0008,-0.0054,-0.0054,-0.0055,-0.0055,0,0.0569,0.0586,0.0622,0.0707,0.0788,0.0889,0.0986,0.1063,0.1145,0.1217,0.1309,0.1302,0.1058,0.0799,0.0438,0.0252,0.0056,0.0001,0.0056,-0.0019,-0.0006,-0.0029,-0.0025,-0.0061,-0.006,-0.006,-0.0059,-0.0059,0.0604,0.0637,0.0695,0.0773,0.0884,0.1026,0.1109,0.1223,0.1353,0.1438,0.1445,0.142,0.1127,0.0661,0.0355,0.0028,0.005,-0.0091,-0.0089,-0.0085,-0.0074,-0.0062,-0.0125,-0.0125,-0.0125,-0.0125,-0.0125,0,0.0649,0.0693,0.0768,0.0879,0.1004,0.1052,0.1227,0.1306,0.1454,0.1522,0.1567,0.1281,0.0992,0.0671,0.0193,-0.0091,-0.0129,-0.0196,-0.0181,-0.0174,-0.0168,-0.016,-0.0236,-0.0237,-0.0237,-0.0238,0,0,0.068,0.0754,0.0782,0.0965,0.1054,0.1225,0.1323,0.1434,0.1515,0.1552,0.1529,0.1443,0.1095,0.0712,0.0319,0.0059,0.0005,-0.0011,0.0105,0.0175,0.0184,-0.0085,-0.0062,0,0,0,0,0]}],[{"header":{"parameterUnit":"m.s-1","parameterCategory":2,"la1":30.2991,"la2":30.254,"lo1":-89.0895,"lo2":-89.0444,"dy":0.0017,"dx":0.0017,"nx":28,"ny":28,"refTime":"2024-05-17T09:00:00:Z","depth":"4","parameterNumber":2,"parameterNumberName":"U-component_of_CURRENTS"},"data":[0,0,0,0,0,0,0,0,0,0,0,0,0,0,0,0,0,0,0,0,0,0,0,0,0,0,0,0,0,0,0,0,0,0,0,0,0,0,0,0,0,0,0,0,0,0,0,0,0,0,0,0,0,0,0,0,0,0,0.116,0.1161,0,0.1208,0.1208,0.1209,0.1248,0.1249,0.1249,0.125,0.1311,0.1312,0.1313,0,0,0,0,0,0,0,0,0,0,0,0,0,0.11,0.1101,0.116,0.1161,0.1161,0.1208,0.1208,0.1209,0.1248,0.1249,0.1249,0.125,0.131,0.1312,0.1313,0,0,0,0,0,0,0,0,0,0,0,0,0,0.1134,0.1101,0.116,0.1187,0.119,0.1208,0.1208,0.1209,0.1248,0.1249,0.125,0.125,0.131,0.1311,0.1313,0.1308,0,0,0.1318,0.1319,0,0,0,0,0,0,0,0,0.1132,0.1136,0.1182,0.1185,0.1189,0.1224,0.121,0.1243,0.1248,0.1225,0.125,0.1251,0.1283,0.1287,0.1292,0.1311,0.1314,0.1319,0.132,0.132,0.1321,0,0,0,0,0,0,0,0.1129,0.1134,0.1178,0.1183,0.1187,0.1197,0.1202,0.1216,0.1248,0.1227,0.123,0.1237,0.1285,0.1291,0.1294,0.1315,0.1318,0.132,0.1321,0.1322,0.139,0.1391,0,0,0,0,0,0,0.1125,0.1132,0.1176,0.1179,0.1163,0.1197,0.1203,0.1211,0.1248,0.1255,0.1236,0.1239,0.1287,0.1292,0.1297,0.1346,0.132,0.1322,0.1323,0.139,0.139,0.1391,0,0,0,0,0,0,0.1123,0.1128,0.1174,0.1157,0.1164,0.1197,0.1206,0.1211,0.1244,0.1255,0.1262,0.1266,0.1288,0.1294,0.1325,0.1347,0.1323,0.1324,0.1389,0.139,0.1391,0.1411,0,0,0,0,0,0,0.1121,0.1128,0.1145,0.1157,0.1165,0.1196,0.1205,0.1212,0.1246,0.125,0.1282,0.1287,0.1289,0.1322,0.1327,0.1348,0.1326,0.1388,0.1389,0.1391,0.1409,0.1412,0.1415,0,0,0,0,0,0.1119,0.1134,0.1146,0.1152,0.1184,0.1196,0.1202,0.1227,0.1247,0.126,0.1282,0.1288,0.1335,0.1324,0.1329,0.1352,0.1387,0.1389,0.139,0.1408,0.1412,0.1415,0,0,0,0,0,0,0.112,0.114,0.1153,0.1176,0.1191,0.1204,0.1225,0.1241,0.127,0.1283,0.1296,0.1302,0.1341,0.1341,0.1329,0.1376,0.1363,0.1366,0.1374,0.1378,0.1381,0.1429,0.1327,0,0,0,0,0,0.1127,0.1144,0.1161,0.1181,0.1192,0.1214,0.123,0.1245,0.1265,0.128,0.1301,0.1325,0.1347,0.1359,0.1379,0.1399,0.1429,0.1418,0.1421,0.1424,0.1466,0.1543,0.1558,0.1397,0.1397,0.1397,0,0,0.1133,0.1147,0.1159,0.1183,0.1201,0.121,0.1226,0.1253,0.1265,0.1281,0.1316,0.1343,0.1358,0.1385,0.1402,0.139,0.1471,0.1426,0.1428,0.147,0.1547,0.1563,0.1577,0.1398,0.1398,0.1398,0,0,0.1133,0.1168,0.1174,0.1189,0.1216,0.1228,0.1241,0.1267,0.1288,0.1318,0.1337,0.1383,0.1405,0.1426,0.1436,0.147,0.1492,0.1471,0.1521,0.1593,0.1608,0.1622,0.1623,0.1637,0.1465,0.1465,0.1465,0,0.1142,0.1146,0.1178,0.1184,0.1199,0.1237,0.1242,0.1265,0.1298,0.1337,0.1333,0.1438,0.1428,0.1497,0.1496,0.148,0.1512,0.15,0.16,0.1614,0.1628,0.1627,0.1642,0.1466,0.1466,0.1466,0.1466,0,0.1132,0.1145,0.1153,0.1171,0.1196,0.1209,0.124,0.1267,0.1306,0.1358,0.1455,0.1475,0.1556,0.1537,0.152,0.1615,0.1599,0.16,0.1593,0.1646,0.164,0.1655,0.1468,0.1467,0.1467,0.1467,0,0,0.1116,0.1139,0.1142,0.1134,0.1191,0.119,0.1234,0.129,0.1365,0.1418,0.1514,0.1557,0.1643,0.1663,0.1671,0.1712,0.1779,0.1698,0.1701,0.1705,0.1911,0.1774,0.1776,0.1814,0.1818,0.1821,0.1847,0,0.1094,0.1068,0.1117,0.111,0.1091,0.1161,0.1238,0.1309,0.1381,0.1485,0.1562,0.167,0.1671,0.1727,0.1783,0.1776,0.1832,0.177,0.1858,0.1859,0.1738,0.1795,0.1834,0.1858,0.1862,0.1864,0.1866,0,0.1072,0.1038,0.1031,0.1074,0.1093,0.1142,0.1254,0.1324,0.1499,0.1589,0.1733,0.1803,0.1885,0.1878,0.1974,0.1942,0.1958,0.1949,0.195,0.1844,0.1754,0.181,0.1894,0.1892,0.189,0.1888,0.1886,0,0.0995,0.0987,0.0973,0.098,0.1058,0.1112,0.1192,0.1377,0.1475,0.1669,0.1748,0.1921,0.1982,0.2053,0.2044,0.2025,0.2126,0.2086,0.1993,0.1979,0.2085,0.2072,0.2212,0.2212,0.2212,0.2212,0.2212,0,0.0955,0.0931,0.0941,0.093,0.101,0.1083,0.1232,0.1373,0.1564,0.1705,0.1827,0.1912,0.204,0.2089,0.2092,0.208,0.2183,0.203,0.2003,0.208,0.2066,0.2092,0.2078,0.2212,0.2212,0.2212,0.2212,0,0.0914,0.0915,0.089,0.0938,0.0992,0.1058,0.1252,0.1313,0.1545,0.1698,0.1755,0.1922,0.1994,0.2073,0.2161,0.2112,0.2116,0.2106,0.2158,0.2129,0.1899,0.1886,0.1977,0.1973,0.197,0.1967,0.1965,0,0.0882,0.0865,0.0906,0.0907,0.095,0.1043,0.1117,0.1336,0.1403,0.1671,0.1704,0.1846,0.1939,0.1934,0.2042,0.2078,0.2077,0.2051,0.2009,0.1923,0.1889,0.188,0.1872,0.1959,0.1958,0.1957,0.1957,0,0.0812,0.0862,0.0842,0.0848,0.0883,0.0961,0.1071,0.1125,0.1361,0.1515,0.1641,0.1704,0.1791,0.1859,0.1933,0.1947,0.2035,0.2014,0.2021,0.1982,0.1902,0.1869,0.1865,0.1945,0.1946,0.1947,0.1948,0,0.0773,0.0759,0.0737,0.0768,0.0818,0.0884,0.0947,0.1001,0.1142,0.143,0.1452,0.1612,0.1773,0.1791,0.1831,0.1863,0.1833,0.1759,0.1779,0.1793,0.1726,0.1598,0.155,0,0,0,0,0,0.0713,0.0671,0.0631,0.0654,0.0706,0.0781,0.0909,0.0953,0.1147,0.1196,0.1362,0.1446,0.1553,0.161,0.1611,0.1735,0.1825,0.1723,0.1745,0.1879,0.1893,0.1834,0,0,0,0,0,0,0.0645,0.0604,0.0579,0.058,0.0592,0.0659,0.0759,0.0867,0.0927,0.1126,0.1179,0.1344,0.1449,0.1556,0.1583,0.1608,0.1587,0.1837,0.1832,0.1871,0.1884,0.1895,0.1839,0,0,0,0,0]},{"header":{"parameterUnit":"m.s-1","parameterCategory":2,"la1":30.2991,"la2":30.254,"lo1":-89.0895,"lo2":-89.0444,"dy":0.0017,"dx":0.0017,"nx":28,"ny":28,"refTime":"2024-05-17T09:00:00:Z","depth":"4","parameterNumber":3,"parameterNumberName":"V-component_of_CURRENTS"},"data":[0,0,0,0,0,0,0,0,0,0,0,0,0,0,0,0,0,0,0,0,0,0,0,0,0,0,0,0,0,0,0,0,0,0,0,0,0,0,0,0,0,0,0,0,0,0,0,0,0,0,0,0,0,0,0,0,0,0,-0.009,-0.0091,0,-0.0101,-0.0101,-0.0101,-0.0111,-0.0111,-0.0111,-0.0111,-0.0128,-0.0128,-0.0129,0,0,0,0,0,0,0,0,0,0,0,0,0,-0.0079,-0.008,-0.009,-0.0091,-0.0091,-0.0101,-0.0101,-0.0101,-0.0111,-0.0111,-0.0111,-0.0111,-0.0128,-0.0128,-0.0129,0,0,0,0,0,0,0,0,0,0,0,0,0,-0.0086,-0.008,-0.009,-0.0097,-0.0097,-0.0101,-0.0101,-0.0101,-0.0111,-0.0111,-0.0111,-0.0112,-0.0128,-0.0128,-0.0129,-0.0128,0,0,-0.013,-0.0131,0,0,0,0,0,0,0,0,-0.0086,-0.0087,-0.0096,-0.0096,-0.0097,-0.0105,-0.0103,-0.011,-0.0111,-0.0106,-0.0111,-0.0112,-0.0121,-0.0122,-0.0123,-0.0129,-0.013,-0.013,-0.0131,-0.0131,-0.0131,0,0,0,0,0,0,0,-0.0086,-0.0087,-0.0095,-0.0096,-0.0097,-0.0099,-0.01,-0.0104,-0.0112,-0.0106,-0.0107,-0.0108,-0.0121,-0.0123,-0.0124,-0.013,-0.013,-0.0131,-0.0131,-0.0131,-0.0133,-0.0133,0,0,0,0,0,0,-0.0084,-0.0086,-0.0094,-0.0095,-0.0092,-0.0099,-0.01,-0.0102,-0.0112,-0.0114,-0.0108,-0.0108,-0.0122,-0.0123,-0.0124,-0.0112,-0.0131,-0.0131,-0.0132,-0.0133,-0.0133,-0.0132,0,0,0,0,0,0,-0.0084,-0.0085,-0.0094,-0.0091,-0.0092,-0.0099,-0.0101,-0.0102,-0.0103,-0.0113,-0.0115,-0.0108,-0.0122,-0.0124,-0.0124,-0.0113,-0.0132,-0.0132,-0.0133,-0.0133,-0.0133,-0.0095,0,0,0,0,0,0,-0.0083,-0.0084,-0.0083,-0.009,-0.0092,-0.0092,-0.0101,-0.0102,-0.0104,-0.0104,-0.0113,-0.0115,-0.0122,-0.0123,-0.0124,-0.0114,-0.0132,-0.0134,-0.0133,-0.0133,-0.0096,-0.0093,-0.009,0,0,0,0,0,-0.0083,-0.008,-0.0083,-0.0084,-0.0091,-0.0092,-0.0093,-0.0099,-0.0103,-0.0101,-0.0106,-0.0115,-0.0121,-0.0123,-0.0124,-0.0114,-0.0134,-0.0133,-0.0133,-0.0098,-0.0094,-0.009,0,0,0,0,0,0,-0.0072,-0.008,-0.0084,-0.0083,-0.0086,-0.0094,-0.0092,-0.0097,-0.0099,-0.0101,-0.011,-0.0112,-0.0109,-0.0118,-0.012,-0.0114,-0.0129,-0.0129,-0.0102,-0.0099,-0.0096,-0.008,-0.0133,0,0,0,0,0,-0.007,-0.0071,-0.0078,-0.0077,-0.0078,-0.0085,-0.0086,-0.009,-0.0094,-0.0096,-0.0101,-0.0107,-0.0108,-0.0108,-0.0113,-0.0109,-0.0127,-0.0105,-0.0102,-0.0099,-0.0088,-0.0107,-0.0104,-0.0131,-0.0131,-0.0131,0,0,-0.0066,-0.007,-0.0071,-0.0075,-0.0078,-0.0071,-0.0086,-0.0087,-0.0079,-0.0097,-0.0089,-0.0097,-0.0105,-0.0099,-0.0098,-0.0105,-0.0104,-0.0098,-0.0096,-0.0086,-0.0106,-0.0103,-0.0101,-0.013,-0.013,-0.013,0,0,-0.0058,-0.0062,-0.006,-0.0059,-0.0063,-0.0063,-0.0062,-0.0068,-0.0069,-0.0066,-0.0074,-0.0072,-0.008,-0.0076,-0.0077,-0.0061,-0.0089,-0.0068,-0.0037,-0.0056,-0.0054,-0.0052,-0.0085,-0.0087,-0.0065,-0.0065,-0.0065,0,-0.0052,-0.0049,-0.0058,-0.0053,-0.0047,-0.0056,-0.0046,-0.0046,-0.005,-0.0045,-0.0059,-0.0052,-0.0065,-0.0042,-0.0041,-0.0052,-0.0075,-0.0048,-0.0051,-0.005,-0.0049,-0.0083,-0.0085,-0.0063,-0.0063,-0.0063,-0.0064,0,-0.0041,-0.0036,-0.0033,-0.0026,-0.002,-0.0014,-0.0013,-0.0004,-0.0008,-0.0011,0.0003,-0.0008,-0.0001,-0.0008,-0.0021,-0.0011,-0.0036,-0.0047,-0.0058,-0.0044,-0.0081,-0.0084,-0.006,-0.0061,-0.0061,-0.0062,0,0,-0.0036,-0.0027,-0.0025,-0.0013,-0.0005,0.0004,0.0023,0.0039,0.0066,0.005,0.0078,0.0067,0.0061,0.006,0.0049,0.0032,0.0007,-0.0003,-0.0005,-0.0033,-0.0049,-0.0063,-0.0068,-0.0007,-0.0007,-0.0007,-0.0083,0,-0.0024,-0.0006,-0.0003,0.0026,0.0039,0.0048,0.0072,0.0085,0.0099,0.0124,0.0108,0.0129,0.0087,0.0102,0.0076,0.0029,0.0004,0.0028,-0.0061,-0.0064,-0.0075,-0.007,-0.0007,-0.0085,-0.0086,-0.0086,-0.0087,0,-0.0012,-0.0002,0.0023,0.006,0.0068,0.0088,0.0141,0.0159,0.0188,0.0209,0.0223,0.0208,0.0193,0.0158,0.0078,0.0092,0.0026,-0.0018,-0.0022,-0.0046,-0.0082,-0.0101,-0.0092,-0.0092,-0.0092,-0.0091,-0.0091,0,-0.0002,0.0025,0.0047,0.0056,0.0091,0.0113,0.0136,0.0178,0.0223,0.0266,0.0302,0.0278,0.0272,0.0192,0.0084,0.008,-0.0014,-0.0033,-0.0107,-0.011,-0.0091,-0.0092,-0.0086,-0.0086,-0.0086,-0.0086,-0.0086,0,0.0015,0.0033,0.0054,0.0065,0.011,0.0126,0.0187,0.0228,0.0297,0.0358,0.0339,0.0371,0.0279,0.0209,0.0105,-0.0014,-0.0005,-0.0097,-0.0124,-0.0076,-0.0075,-0.0095,-0.0095,-0.0089,-0.0088,-0.0087,-0.0087,0,0.0024,0.0033,0.0067,0.0103,0.0113,0.0147,0.0225,0.028,0.0341,0.0424,0.0443,0.0436,0.0344,0.0237,0.0108,0.0018,-0.0092,-0.0136,-0.0083,-0.0106,-0.0184,-0.0181,-0.0224,-0.0225,-0.0226,-0.0226,-0.0227,0,0.0028,0.004,0.0089,0.0108,0.0124,0.0171,0.0211,0.0299,0.0372,0.0454,0.0493,0.0445,0.0412,0.0217,0.0092,-0.0091,-0.0119,-0.0181,-0.0175,-0.0173,-0.0195,-0.0191,-0.0187,-0.0228,-0.0229,-0.0229,-0.0229,0,0.0033,0.0053,0.0081,0.0131,0.0173,0.0234,0.0299,0.036,0.0463,0.0514,0.0552,0.0474,0.0371,0.0218,0.0084,-0.0053,-0.0141,-0.019,-0.019,-0.0185,-0.0179,-0.0199,-0.0194,-0.0232,-0.0232,-0.0231,-0.0231,0,0.0038,0.0064,0.0108,0.0156,0.0217,0.029,0.0318,0.0391,0.0473,0.0572,0.0563,0.0475,0.0432,0.0235,0.01,-0.0022,-0.0059,-0.0106,-0.011,-0.0108,-0.0053,-0.0028,-0.0052,0,0,0,0,0,0.004,0.007,0.0119,0.0193,0.0265,0.0308,0.0382,0.0414,0.0495,0.0536,0.0573,0.0485,0.032,0.0231,0.0107,0.0055,-0.0104,-0.0099,-0.0164,-0.0248,-0.0245,-0.0201,0,0,0,0,0,0,0.0039,0.0085,0.0124,0.0229,0.0279,0.0376,0.0423,0.0468,0.0491,0.0539,0.0444,0.0446,0.0264,0.0401,0.0105,0.0067,0.0005,-0.0168,-0.0171,-0.025,-0.0247,-0.0244,-0.0198,0,0,0,0,0]}]]